Flag for Norway Weather past 2 weeks in Stange, Norway

Now
46 °F

Cool.


Feels Like: 46 °F
Forecast: 40 / 62 °F
Wind: 1 mph from East

Location: Haugedalshogda

Current Time: Sep 18, 2014 at 8:44:30 PM

Latest Report: Sep 18, 2014 at 8:00 PM


Visibility: N/A

Pressure: 30.19 "Hg

Humidity: 89%

Dew point: 43 °F

Location of StangeLocation

Historic Weather in Stange — Graph

°F

Stange temperature yesterday

Maximum temperature yesterday: 65 °F (at 3:00 PM)
Minimum temperature yesterday: 34 °F (at 4:00 AM)
Average temperature yesterday: 45 °F

Past Weeks' High & Low Weather Summary

 TemperatureHumidityPressure
High71 °F (Sep 4, 3:00 PM)95% (Sep 4, 4:00 AM)30.56 "Hg (Sep 4, 4:00 AM)
Low32 °F (Sep 13, 6:00 AM)35% (Sep 4, 3:00 PM)29.79 "Hg (Sep 9, 7:00 AM)
Average51 °F81%30.24 "Hg
* Reported Sep 3 5:00 PM — Sep 18 5:00 PM, Stange, Weather by CustomWeather, © 2014

Note: Actual official high and low records may vary slightly from our data, if they occured in-between our weather recording intervals... More about our weather records

Advertising

Stange weather history for previous 24 hours

 ConditionsComfort  
Time TempWeatherWind HumidityBarometerVisibility
5:00 PM
Sep 18
62 °FRefreshingly cool.5 mph59%30.16 "HgN/A
4:00 PM62 °FMild.5 mph56%30.16 "HgN/A
3:00 PM62 °FRefreshingly cool.5 mph57%30.17 "HgN/A
2:00 PM61 °FRefreshingly cool.2 mph59%30.19 "HgN/A
1:00 PM55 °FCool.1 mph73%30.23 "HgN/A
12:00 PM46 °FCool.1 mph94%30.26 "HgN/A
11:00 AM43 °FQuite cool.1 mph94%30.29 "HgN/A
10:00 AM41 °FQuite cool.1 mph95%30.29 "HgN/A
9:00 AM39 °FChilly.1 mph95%30.29 "HgN/A
8:00 AM36 °FChilly.No wind95%30.30 "HgN/A
7:00 AM33 °FChilly.1 mph95%30.31 "HgN/A
6:00 AM33 °FChilly.1 mph95%30.30 "HgN/A
5:00 AM34 °FChilly.1 mph95%30.30 "HgN/A
4:00 AM35 °FChilly.1 mph95%30.31 "HgN/A
3:00 AM35 °FChilly.No wind95%30.31 "HgN/A
2:00 AM34 °FChilly.1 mph94%30.32 "HgN/A
1:00 AM34 °FChilly.1 mph94%30.32 "HgN/A
12:00 AM36 °FChilly.No wind94%30.31 "HgN/A
11:00 PM
Sep 17
37 °FChilly.1 mph92%30.31 "HgN/A
10:00 PM37 °FChilly.1 mph90%30.30 "HgN/A
9:00 PM41 °FQuite cool.1 mph90%30.29 "HgN/A
8:00 PM45 °FQuite cool.1 mph86%30.28 "HgN/A
Weather by CustomWeather, © 2014

See weather overviewHow to use our weather pages